This is the latest recevied weather packets stored in our database for station/object NY5V. If no packets are shown the sender has not sent any weather packets the latest 10 day(s).
| Time | Temp. | Humidity | Pressure | Rain* | Wind** | Luminosity | Snow |
|---|---|---|---|---|---|---|---|
| 1777810248 | 12.78° C | 81% | 1021.6 hPa | 0 mm | - | 13 W/m² | - |
| 1777809648 | 13.33° C | 79% | 1021.5 hPa | 0 mm | - | 9 W/m² | - |
| 1777809043 | 12.78° C | 80% | 1021.2 hPa | 0 mm | - | 6 W/m² | - |
| 1777808443 | 12.78° C | 79% | 1021 hPa | 0 mm | - | 3 W/m² | - |
| 1777807839 | 12.78° C | 80% | 1021 hPa | 0 mm | - | 1 W/m² | - |
| 1777807238 | 12.78° C | 81% | 1021 hPa | 0 mm | - | 0 W/m² | - |
| 1777806637 | 12.78° C | 80% | 1020.8 hPa | 0 mm | - | 0 W/m² | - |
| 1777806036 | 12.78° C | 82% | 1020.4 hPa | 0 mm | - | 0 W/m² | - |
| 1777805436 | 12.78° C | 83% | 1020.4 hPa | 0 mm | - | 0 W/m² | - |
| 1777804832 | 12.78° C | 83% | 1020.3 hPa | 0 mm | - | 0 W/m² | - |
| 1777804227 | 12.78° C | 83% | 1020.3 hPa | 0 mm | - | 0 W/m² | - |
| 1777803626 | 12.78° C | 86% | 1020.4 hPa | 0 mm | - | 0 W/m² | - |
| 1777803026 | 12.78° C | 83% | 1020.3 hPa | 0 mm | - | 0 W/m² | - |
| 1777802421 | 12.78° C | 82% | 1020.5 hPa | 0 mm | - | 0 W/m² | - |
| 1777801816 | 12.22° C | 83% | 1020.4 hPa | 0 mm | - | 0 W/m² | - |
| 1777801215 | 12.22° C | 87% | 1020.3 hPa | 0 mm | - | 0 W/m² | - |
| 1777800615 | 12.22° C | 86% | 1020.4 hPa | 0 mm | - | 0 W/m² | - |
| 1777800013 | 12.22° C | 84% | 1020.3 hPa | 0 mm | - | 0 W/m² | - |
| 1777799412 | 12.22° C | 84% | 1020.2 hPa | 0 mm | - | 0 W/m² | - |
| 1777798809 | 12.78° C | 83% | 1020.2 hPa | 0 mm | - | 0 W/m² | - |
| 1777798209 | 12.78° C | 86% | 1020.3 hPa | 0 mm | - | 0 W/m² | - |
| 1777797609 | 12.78° C | 83% | 1020.4 hPa | 0 mm | - | 0 W/m² | - |
| 1777797009 | 12.78° C | 84% | 1020.2 hPa | 0 mm | - | 0 W/m² | - |
| 1777796409 | 12.78° C | 79% | 1020.3 hPa | 0 mm | - | 0 W/m² | - |
| 1777795807 | 13.33° C | 80% | 1020.6 hPa | 0 mm | - | 0 W/m² | - |
* Rain latest hour (hover to see other rain measurements)
** Current wind speed in m/s (hover to see current wind gust speed)